TIANMU-1 12

Last updated on Sun Apr 12 2026 00:02:27 GMT+0000 (Coordinated Universal Time)

1 58646U 23205B 26101.49305115 .00004514 00000+0 17687-3 0 9994 2 58646 97.3498 123.8857 0006284 209.1441 150.9448 15.26267649127331
UTC large
Height (km)
Speed (km/s)
/
Latitude / Longitude
Inclination (degrees)
Orbital Period (minutes)
Azimuth
Elevation
Range (km)
Doppler Factor

Next 0 passes for location: London (51.5072 / 0.1276)

Sorry there are no passes over London.
TIANMU-1 12